Spplingen 38373
Wetterdaten: aktuell Freitag, 08.12.2023 18:00
Datum Zeit Temp. Aussen Temp. Wind Feuchte I. Feuchte Auss Luftdruck Regen Wind Richtung Richtung Sonnenschein UV Taupunkt Windchill Ben
08.12.2023 18:00 0,2 C 0,1 C 57 % 98 % 1009,8 hPa 0,0 mm 0,3 km/h N 5 0 min 0,0 UV-I -0,1 C 0,1 C 2,9 km/h
08.12.2023 17:55 0,2 C 0,1 C 57 % 98 % 1009,8 hPa 0,0 mm 0,3 km/h N 5 0 min 0,0 UV-I -0,1 C 0,1 C 2,9 km/h
08.12.2023 17:50 0,2 C 0,1 C 57 % 98 % 1009,9 hPa 0,0 mm 0,3 km/h O-SO 115 0 min 0,0 UV-I -0,1 C 0,1 C 2,5 km/h
08.12.2023 17:45 0,2 C 0,1 C 56 % 98 % 1009,8 hPa 0,0 mm 0,3 km/h O 99 0 min 0,0 UV-I -0,1 C 0,1 C 2,5 km/h
08.12.2023 17:40 0,2 C 0,1 C 53 % 97 % 1009,8 hPa 0,0 mm 0,4 km/h O-SO 107 0 min 0,0 UV-I -0,2 C 0,1 C 2,2 km/h
08.12.2023 17:35 0,2 C 0,1 C 53 % 97 % 1009,9 hPa 0,0 mm 1,3 km/h O 93 0 min 0,0 UV-I -0,2 C 0,1 C 5,0 km/h
08.12.2023 17:30 0,2 C 0,1 C 53 % 98 % 1009,8 hPa 0,0 mm 0,7 km/h O-NO 59 0 min 0,0 UV-I -0,1 C 0,1 C 2,5 km/h
08.12.2023 17:25 0,2 C 0,1 C 53 % 98 % 1009,9 hPa 0,0 mm 1,0 km/h O-NO 71 0 min 0,0 UV-I -0,1 C 0,1 C 4,0 km/h
08.12.2023 17:20 0,2 C 0,1 C 53 % 98 % 1009,9 hPa 0,0 mm 1,2 km/h O 79 0 min 0,0 UV-I -0,1 C 0,1 C 4,3 km/h
08.12.2023 17:15 0,2 C 0,1 C 53 % 98 % 1009,9 hPa 0,0 mm 1,0 km/h O 84 0 min 0,0 UV-I -0,1 C 0,1 C 4,0 km/h
08.12.2023 17:10 0,1 C 0,1 C 53 % 97 % 1009,8 hPa 0,0 mm 0,7 km/h N-NO 26 0 min 0,0 UV-I -0,3 C 0,1 C 2,5 km/h
08.12.2023 17:05 0,1 C 0,1 C 53 % 97 % 1009,7 hPa 0,0 mm 1,5 km/h N-NO 33 0 min 0,0 UV-I -0,3 C 0,1 C 4,7 km/h
08.12.2023 17:00 0,1 C 0,1 C 53 % 97 % 1009,8 hPa 0,0 mm 1,1 km/h O 81 0 min 0,0 UV-I -0,3 C 0,1 C 6,5 km/h
08.12.2023 16:55 0,1 C 0,1 C 53 % 97 % 1009,7 hPa 0,0 mm 1,4 km/h O 99 0 min 0,0 UV-I -0,3 C 0,1 C 6,1 km/h
08.12.2023 16:50 0,1 C 0,1 C 53 % 97 % 1009,7 hPa 0,0 mm 3,4 km/h O-NO 66 0 min 0,0 UV-I -0,3 C 0,1 C 7,2 km/h
08.12.2023 16:45 0,1 C 0,1 C 53 % 97 % 1009,7 hPa 0,0 mm 2,0 km/h O-NO 77 0 min 0,0 UV-I -0,3 C 0,1 C 5,4 km/h
08.12.2023 16:40 0,1 C 0,1 C 53 % 97 % 1009,7 hPa 0,0 mm 1,2 km/h O-NO 62 0 min 0,0 UV-I -0,3 C 0,1 C 3,6 km/h
08.12.2023 16:35 0,1 C 0,1 C 53 % 97 % 1009,6 hPa 0,0 mm 1,7 km/h O-NO 61 0 min 0,0 UV-I -0,3 C 0,1 C 5,0 km/h
08.12.2023 16:30 0,1 C 0,1 C 53 % 97 % 1009,7 hPa 0,0 mm 1,2 km/h NO 48 0 min 0,0 UV-I -0,3 C 0,1 C 3,6 km/h
08.12.2023 16:25 0,1 C 0,1 C 53 % 97 % 1009,6 hPa 0,0 mm 0,3 km/h NO 36 0 min 0,0 UV-I -0,3 C 0,1 C 2,5 km/h
08.12.2023 16:20 0,1 C 0,1 C 52 % 97 % 1009,6 hPa 0,0 mm 1,1 km/h O-NO 74 0 min 0,0 UV-I -0,3 C 0,1 C 4,0 km/h
08.12.2023 16:15 0,0 C 0,0 C 52 % 97 % 1009,5 hPa 0,0 mm 1,3 km/h O 79 0 min 0,0 UV-I -0,4 C 0,0 C 4,0 km/h
08.12.2023 16:10 0,0 C 0,0 C 52 % 97 % 1009,6 hPa 0,0 mm 2,0 km/h O-NO 57 0 min 0,0 UV-I -0,4 C 0,0 C 5,8 km/h
08.12.2023 16:05 0,0 C 0,0 C 52 % 97 % 1009,5 hPa 0,0 mm 1,8 km/h O 88 0 min 0,0 UV-I -0,4 C 0,0 C 4,0 km/h
08.12.2023 16:00 0,1 C 0,1 C 52 % 97 % 1009,6 hPa 0,0 mm 1,7 km/h O-NO 74 0 min 0,0 UV-I -0,3 C 0,1 C 3,6 km/h
08.12.2023 15:55 0,0 C 0,0 C 52 % 96 % 1009,5 hPa 0,0 mm 1,5 km/h O-NO 74 0 min 0,0 UV-I -0,6 C 0,0 C 3,2 km/h
08.12.2023 15:50 0,0 C 0,0 C 52 % 96 % 1009,4 hPa 0,0 mm 2,1 km/h O 100 0 min 0,0 UV-I -0,6 C 0,0 C 6,8 km/h
08.12.2023 15:45 0,1 C 0,1 C 52 % 96 % 1009,5 hPa 0,0 mm 1,4 km/h NO 53 0 min 0,0 UV-I -0,5 C 0,1 C 6,8 km/h
08.12.2023 15:40 0,1 C 0,1 C 52 % 96 % 1009,5 hPa 0,0 mm 1,6 km/h O 82 0 min 0,0 UV-I -0,5 C 0,1 C 3,6 km/h
08.12.2023 15:35 0,1 C 0,1 C 52 % 96 % 1009,5 hPa 0,0 mm 1,4 km/h O-SO 106 0 min 0,0 UV-I -0,5 C 0,1 C 4,3 km/h
08.12.2023 15:30 0,1 C 0,1 C 52 % 96 % 1009,3 hPa 0,0 mm 2,1 km/h O-NO 77 0 min 0,0 UV-I -0,5 C 0,1 C 6,8 km/h
08.12.2023 15:25 0,1 C 0,1 C 52 % 96 % 1009,3 hPa 0,0 mm 1,6 km/h O-NO 66 0 min 0,0 UV-I -0,5 C 0,1 C 4,7 km/h
08.12.2023 15:20 0,1 C 0,1 C 52 % 96 % 1009,4 hPa 0,0 mm 2,3 km/h O-NO 75 0 min 0,0 UV-I -0,5 C 0,1 C 5,8 km/h
08.12.2023 15:15 0,1 C 0,1 C 52 % 96 % 1009,4 hPa 0,0 mm 2,6 km/h O-NO 74 0 min 0,0 UV-I -0,5 C 0,1 C 7,9 km/h
08.12.2023 15:10 0,1 C 0,1 C 52 % 96 % 1009,3 hPa 0,0 mm 2,3 km/h NO 49 0 min 0,0 UV-I -0,5 C 0,1 C 6,8 km/h
08.12.2023 15:05 0,1 C 0,1 C 52 % 95 % 1009,4 hPa 0,0 mm 2,2 km/h NO 56 0 min 0,0 UV-I -0,6 C 0,1 C 5,0 km/h
08.12.2023 15:00 0,2 C 0,1 C 52 % 95 % 1009,3 hPa 0,0 mm 2,6 km/h O 85 0 min 0,0 UV-I -0,5 C 0,1 C 5,8 km/h
08.12.2023 14:55 0,2 C 0,1 C 52 % 95 % 1009,4 hPa 0,0 mm 2,0 km/h O-NO 77 0 min 0,0 UV-I -0,5 C 0,1 C 4,0 km/h
08.12.2023 14:50 0,3 C 0,2 C 52 % 95 % 1009,5 hPa 0,0 mm 2,5 km/h O 85 0 min 0,0 UV-I -0,4 C 0,2 C 5,8 km/h
08.12.2023 14:45 0,3 C 0,2 C 52 % 95 % 1009,5 hPa 0,1 mm 0,9 km/h NO 51 0 min 0,0 UV-I -0,4 C 0,2 C 3,2 km/h
08.12.2023 14:40 0,3 C 0,2 C 52 % 95 % 1009,5 hPa 0,0 mm 1,2 km/h O-NO 75 0 min 0,0 UV-I -0,4 C 0,2 C 4,0 km/h
08.12.2023 14:35 0,3 C 0,2 C 52 % 95 % 1009,4 hPa 0,0 mm 1,7 km/h NO 43 0 min 0,0 UV-I -0,4 C 0,2 C 6,5 km/h
08.12.2023 14:30 0,3 C 0,2 C 52 % 95 % 1009,2 hPa 0,0 mm 1,9 km/h O 88 0 min 0,0 UV-I -0,4 C 0,2 C 4,7 km/h
08.12.2023 14:25 0,3 C 0,2 C 53 % 95 % 1009,3 hPa 0,0 mm 1,9 km/h O-NO 75 0 min 0,0 UV-I -0,4 C 0,2 C 6,5 km/h
08.12.2023 14:20 0,3 C 0,2 C 53 % 95 % 1009,3 hPa 0,0 mm 1,7 km/h NO 35 0 min 0,0 UV-I -0,4 C 0,2 C 5,8 km/h
08.12.2023 14:15 0,3 C 0,2 C 53 % 95 % 1009,4 hPa 0,0 mm 1,6 km/h O-NO 67 0 min 0,0 UV-I -0,4 C 0,2 C 4,7 km/h
08.12.2023 14:10 0,3 C 0,2 C 53 % 94 % 1009,5 hPa 0,0 mm 2,0 km/h O 87 0 min 0,0 UV-I -0,5 C 0,2 C 5,4 km/h
08.12.2023 14:05 0,3 C 0,2 C 53 % 94 % 1009,4 hPa 0,0 mm 2,2 km/h O-NO 72 0 min 0,0 UV-I -0,5 C 0,2 C 8,3 km/h
08.12.2023 14:00 0,4 C 0,3 C 53 % 94 % 1009,4 hPa 0,0 mm 2,1 km/h O 89 0 min 0,0 UV-I -0,5 C 0,3 C 5,8 km/h
08.12.2023 13:55 0,4 C 0,3 C 52 % 94 % 1009,4 hPa 0,0 mm 2,3 km/h O 79 0 min 0,0 UV-I -0,5 C 0,3 C 7,2 km/h
08.12.2023 13:50 0,4 C 0,3 C 52 % 94 % 1009,4 hPa 0,0 mm 1,2 km/h O-NO 61 0 min 0,0 UV-I -0,5 C 0,3 C 5,8 km/h
08.12.2023 13:45 0,4 C 0,3 C 52 % 94 % 1009,4 hPa 0,0 mm 1,5 km/h NO 43 0 min 0,0 UV-I -0,5 C 0,3 C 5,4 km/h
08.12.2023 13:40 0,4 C 0,3 C 52 % 94 % 1009,5 hPa 0,0 mm 1,7 km/h O 84 0 min 0,0 UV-I -0,5 C 0,3 C 5,4 km/h
08.12.2023 13:35 0,4 C 0,3 C 52 % 93 % 1009,3 hPa 0,0 mm 1,4 km/h O-SO 116 0 min 0,0 UV-I -0,6 C 0,3 C 4,0 km/h
08.12.2023 13:30 0,4 C 0,3 C 52 % 93 % 1009,3 hPa 0,0 mm 1,4 km/h O-SO 116 0 min 0,0 UV-I -0,6 C 0,3 C 4,0 km/h
08.12.2023 13:25 0,4 C 0,3 C 52 % 93 % 1009,3 hPa 0,0 mm 2,1 km/h NO 44 0 min 0,0 UV-I -0,6 C 0,3 C 7,2 km/h
08.12.2023 13:20 0,4 C 0,3 C 52 % 93 % 1009,3 hPa 0,0 mm 2,3 km/h SO 126 0 min 0,0 UV-I -0,6 C 0,3 C 4,0 km/h
08.12.2023 13:15 0,4 C 0,3 C 52 % 93 % 1009,3 hPa 0,0 mm 1,6 km/h NO 43 0 min 0,0 UV-I -0,6 C 0,3 C 5,8 km/h
08.12.2023 13:10 0,4 C 0,3 C 52 % 92 % 1009,2 hPa 0,0 mm 1,8 km/h O 85 0 min 0,0 UV-I -0,7 C 0,3 C 4,0 km/h
08.12.2023 13:05 0,5 C 0,3 C 53 % 92 % 1009,2 hPa 0,0 mm 1,9 km/h O-NO 73 0 min 0,0 UV-I -0,6 C 0,3 C 4,3 km/h
08.12.2023 13:00 0,5 C 0,3 C 53 % 92 % 1009,2 hPa 0,0 mm 1,5 km/h O-NO 61 0 min 0,0 UV-I -0,6 C 0,3 C 4,7 km/h
08.12.2023 12:55 0,5 C 0,3 C 53 % 92 % 1009,2 hPa 0,0 mm 2,1 km/h O-NO 65 0 min 0,0 UV-I -0,6 C 0,3 C 4,7 km/h
08.12.2023 12:50 0,5 C 0,3 C 53 % 93 % 1009,2 hPa 0,0 mm 2,2 km/h O-NO 58 0 min 0,0 UV-I -0,5 C 0,3 C 4,0 km/h
08.12.2023 12:45 0,5 C 0,3 C 53 % 93 % 1009,4 hPa 0,0 mm 1,4 km/h O-NO 65 0 min 0,0 UV-I -0,5 C 0,3 C 4,3 km/h
08.12.2023 12:40 0,4 C 0,3 C 53 % 93 % 1009,4 hPa 0,0 mm 1,6 km/h O 82 0 min 0,0 UV-I -0,6 C 0,3 C 5,0 km/h
08.12.2023 12:35 0,4 C 0,3 C 53 % 92 % 1009,4 hPa 0,0 mm 1,7 km/h O-NO 67 0 min 0,0 UV-I -0,7 C 0,3 C 4,7 km/h
08.12.2023 12:30 0,4 C 0,3 C 53 % 93 % 1009,6 hPa 0,0 mm 1,9 km/h SO 127 0 min 0,0 UV-I -0,6 C 0,3 C 4,3 km/h
08.12.2023 12:25 0,4 C 0,3 C 53 % 93 % 1009,6 hPa 0,0 mm 1,6 km/h O-SO 115 0 min 0,0 UV-I -0,6 C 0,3 C 4,0 km/h
08.12.2023 12:20 0,3 C 0,2 C 53 % 93 % 1009,7 hPa 0,0 mm 1,5 km/h O 100 0 min 0,0 UV-I -0,7 C 0,2 C 4,3 km/h
08.12.2023 12:15 0,3 C 0,2 C 53 % 93 % 1009,8 hPa 0,0 mm 1,0 km/h O-NO 71 0 min 0,0 UV-I -0,7 C 0,2 C 5,0 km/h
08.12.2023 12:10 0,2 C 0,1 C 52 % 93 % 1010,0 hPa 0,0 mm 1,5 km/h O 79 0 min 0,0 UV-I -0,8 C 0,1 C 4,7 km/h
08.12.2023 12:05 0,1 C 0,1 C 52 % 93 % 1010,1 hPa 0,0 mm 0,7 km/h O-SO 103 0 min 0,0 UV-I -0,9 C 0,1 C 3,6 km/h
08.12.2023 12:00 0,0 C 0,0 C 52 % 93 % 1010,1 hPa 0,0 mm 1,8 km/h O 84 0 min 0,0 UV-I -1,0 C 0,0 C 3,6 km/h
08.12.2023 11:55 0,0 C 0,0 C 52 % 93 % 1010,1 hPa 0,0 mm 1,7 km/h NO 55 0 min 0,0 UV-I -1,0 C 0,0 C 3,6 km/h
08.12.2023 11:50 0,1 C 0,1 C 52 % 92 % 1010,2 hPa 0,0 mm 1,2 km/h O-NO 70 0 min 0,0 UV-I -1,0 C 0,1 C 4,7 km/h
08.12.2023 11:45 0,2 C 0,1 C 52 % 91 % 1010,1 hPa 0,0 mm 1,7 km/h NO 44 0 min 0,0 UV-I -1,1 C 0,1 C 4,7 km/h
08.12.2023 11:40 0,2 C 0,1 C 52 % 90 % 1010,3 hPa 0,0 mm 1,3 km/h O-NO 62 0 min 0,0 UV-I -1,2 C 0,1 C 3,6 km/h
08.12.2023 11:35 0,3 C 0,2 C 53 % 90 % 1010,2 hPa 0,0 mm 0,8 km/h O 85 0 min 0,0 UV-I -1,1 C 0,2 C 3,2 km/h
08.12.2023 11:30 0,3 C 0,2 C 53 % 90 % 1010,1 hPa 0,0 mm 1,3 km/h NO 47 0 min 0,0 UV-I -1,1 C 0,2 C 5,8 km/h
08.12.2023 11:25 0,3 C 0,2 C 53 % 89 % 1010,2 hPa 0,0 mm 1,0 km/h O 81 0 min 0,0 UV-I -1,3 C 0,2 C 3,2 km/h
08.12.2023 11:20 0,3 C 0,2 C 54 % 89 % 1010,3 hPa 0,0 mm 1,6 km/h O-SO 109 0 min 0,0 UV-I -1,3 C 0,2 C 4,3 km/h
08.12.2023 11:15 0,3 C 0,2 C 54 % 88 % 1010,2 hPa 0,0 mm 1,9 km/h NO 45 0 min 0,0 UV-I -1,4 C 0,2 C 5,0 km/h
08.12.2023 11:10 0,3 C 0,2 C 54 % 88 % 1010,3 hPa 0,0 mm 1,9 km/h O 87 0 min 0,0 UV-I -1,4 C 0,2 C 7,6 km/h
08.12.2023 11:05 0,4 C 0,3 C 54 % 88 % 1010,3 hPa 0,0 mm 1,8 km/h O-NO 61 0 min 0,0 UV-I -1,3 C 0,3 C 6,1 km/h
08.12.2023 11:00 0,4 C 0,3 C 53 % 88 % 1010,4 hPa 0,0 mm 2,7 km/h NO 50 0 min 0,0 UV-I -1,3 C 0,3 C 6,1 km/h
08.12.2023 10:55 0,4 C 0,3 C 53 % 87 % 1010,5 hPa 0,0 mm 2,4 km/h O 87 0 min 0,0 UV-I -1,5 C 0,3 C 7,2 km/h
08.12.2023 10:50 0,4 C 0,3 C 53 % 87 % 1010,6 hPa 0,0 mm 2,3 km/h O-NO 65 0 min 0,0 UV-I -1,5 C 0,3 C 5,0 km/h
08.12.2023 10:45 0,4 C 0,3 C 53 % 87 % 1010,4 hPa 0,0 mm 1,4 km/h O-NO 61 0 min 0,0 UV-I -1,5 C 0,3 C 4,3 km/h
08.12.2023 10:40 0,4 C 0,3 C 53 % 86 % 1010,6 hPa 0,0 mm 1,6 km/h O 82 0 min 0,0 UV-I -1,7 C 0,3 C 6,5 km/h
08.12.2023 10:35 0,4 C 0,3 C 53 % 86 % 1010,5 hPa 0,0 mm 2,1 km/h O 79 0 min 0,0 UV-I -1,7 C 0,3 C 4,7 km/h
08.12.2023 10:30 0,4 C 0,3 C 53 % 85 % 1010,4 hPa 0,0 mm 2,1 km/h NO 54 0 min 0,0 UV-I -1,8 C 0,3 C 4,7 km/h
08.12.2023 10:25 0,4 C 0,3 C 53 % 86 % 1010,4 hPa 0,0 mm 2,4 km/h O-NO 60 0 min 0,0 UV-I -1,7 C 0,3 C 7,2 km/h
08.12.2023 10:20 0,4 C 0,3 C 53 % 86 % 1010,5 hPa 0,0 mm 2,8 km/h NO 39 0 min 0,0 UV-I -1,7 C 0,3 C 6,1 km/h
08.12.2023 10:15 0,3 C 0,2 C 53 % 86 % 1010,4 hPa 0,0 mm 2,2 km/h NO 46 0 min 0,0 UV-I -1,8 C 0,2 C 6,5 km/h
08.12.2023 10:10 0,3 C 0,2 C 53 % 86 % 1010,4 hPa 0,0 mm 3,0 km/h O-NO 57 0 min 0,0 UV-I -1,8 C 0,2 C 5,4 km/h
08.12.2023 10:05 0,3 C 0,2 C 53 % 85 % 1010,4 hPa 0,0 mm 1,2 km/h NO 48 0 min 0,0 UV-I -1,9 C 0,2 C 5,8 km/h
08.12.2023 10:00 0,3 C 0,2 C 54 % 85 % 1010,3 hPa 0,0 mm 1,3 km/h NO 40 0 min 0,0 UV-I -1,9 C 0,2 C 5,4 km/h
08.12.2023 09:55 0,3 C 0,2 C 54 % 85 % 1010,2 hPa 0,0 mm 2,3 km/h O-NO 69 0 min 0,0 UV-I -1,9 C 0,2 C 7,9 km/h
08.12.2023 09:50 0,2 C 0,1 C 54 % 85 % 1010,1 hPa 0,0 mm 2,7 km/h O-NO 60 0 min 0,0 UV-I -2,0 C 0,1 C 7,6 km/h
08.12.2023 09:45 0,2 C 0,1 C 54 % 86 % 1010,2 hPa 0,0 mm 3,1 km/h NO 56 0 min 0,0 UV-I -1,9 C 0,1 C 8,3 km/h
08.12.2023 09:40 0,2 C 0,1 C 54 % 85 % 1010,1 hPa 0,0 mm 3,9 km/h O-NO 61 0 min 0,0 UV-I -2,0 C 0,1 C 8,6 km/h
08.12.2023 09:35 0,2 C 0,1 C 54 % 86 % 1010,3 hPa 0,0 mm 2,7 km/h N-NO 33 0 min 0,0 UV-I -1,9 C 0,1 C 6,5 km/h
08.12.2023 09:30 0,2 C 0,1 C 54 % 86 % 1010,3 hPa 0,0 mm 2,8 km/h O-NO 68 0 min 0,0 UV-I -1,9 C 0,1 C 7,2 km/h
08.12.2023 09:25 0,2 C 0,1 C 54 % 86 % 1010,2 hPa 0,0 mm 3,1 km/h O-NO 78 0 min 0,0 UV-I -1,9 C 0,1 C 7,9 km/h
08.12.2023 09:20 0,2 C 0,1 C 54 % 86 % 1010,3 hPa 0,0 mm 3,4 km/h NO 51 0 min 0,0 UV-I -1,9 C 0,1 C 8,3 km/h
08.12.2023 09:15 0,1 C 0,1 C 54 % 86 % 1010,3 hPa 0,0 mm 3,5 km/h NO 40 0 min 0,0 UV-I -2,0 C 0,1 C 5,0 km/h
08.12.2023 09:10 0,1 C 0,1 C 54 % 86 % 1010,4 hPa 0,0 mm 3,5 km/h NO 52 0 min 0,0 UV-I -2,0 C 0,1 C 7,6 km/h
08.12.2023 09:05 0,0 C 0,0 C 54 % 86 % 1010,5 hPa 0,0 mm 3,9 km/h NO 40 0 min 0,0 UV-I -2,1 C 0,0 C 10,1 km/h
08.12.2023 09:00 0,0 C 0,0 C 54 % 87 % 1010,5 hPa 0,0 mm 2,2 km/h N-NO 22 0 min 0,0 UV-I -1,9 C 0,0 C 5,4 km/h
08.12.2023 08:55 -0,1 C 0,0 C 54 % 87 % 1010,6 hPa 0,0 mm 3,1 km/h O-NO 58 0 min 0,0 UV-I -2,0 C 0,0 C 7,2 km/h
08.12.2023 08:50 -0,1 C 0,0 C 54 % 88 % 1010,5 hPa 0,0 mm 2,0 km/h O-NO 71 0 min 0,0 UV-I -1,8 C 0,0 C 4,7 km/h
08.12.2023 08:45 -0,2 C 0,0 C 54 % 88 % 1010,3 hPa 0,0 mm 2,9 km/h O-NO 59 0 min 0,0 UV-I -1,9 C 0,0 C 9,4 km/h
08.12.2023 08:40 -0,2 C 0,0 C 54 % 88 % 1010,4 hPa 0,0 mm 2,4 km/h NO 54 0 min 0,0 UV-I -1,9 C 0,0 C 6,8 km/h
08.12.2023 08:35 -0,2 C 0,0 C 54 % 88 % 1010,5 hPa 0,0 mm 1,5 km/h O-NO 68 0 min 0,0 UV-I -1,9 C 0,0 C 5,8 km/h
08.12.2023 08:30 -0,3 C 0,0 C 55 % 89 % 1010,3 hPa 0,0 mm 2,0 km/h O-NO 60 0 min 0,0 UV-I -1,9 C 0,0 C 5,4 km/h
08.12.2023 08:25 -0,3 C 0,0 C 55 % 89 % 1010,1 hPa 0,0 mm 4,1 km/h N-NO 22 0 min 0,0 UV-I -1,9 C 0,0 C 9,4 km/h
08.12.2023 08:20 -0,4 C 0,0 C 55 % 89 % 1010,2 hPa 0,0 mm 3,5 km/h NO 37 0 min 0,0 UV-I -2,0 C 0,0 C 7,9 km/h
08.12.2023 08:15 -0,4 C 0,0 C 55 % 89 % 1010,4 hPa 0,0 mm 2,5 km/h NO 51 0 min 0,0 UV-I -2,0 C 0,0 C 7,6 km/h
08.12.2023 08:10 -0,4 C 0,0 C 55 % 89 % 1010,3 hPa 0,0 mm 2,9 km/h NO 47 0 min 0,0 UV-I -2,0 C 0,0 C 5,8 km/h
08.12.2023 08:05 -0,4 C 0,0 C 55 % 89 % 1010,4 hPa 0,0 mm 3,2 km/h O-NO 73 0 min 0,0 UV-I -2,0 C 0,0 C 6,8 km/h
08.12.2023 08:00 -0,3 C 0,0 C 55 % 89 % 1010,4 hPa 0,0 mm 3,3 km/h NO 54 0 min 0,0 UV-I -1,9 C 0,0 C 7,6 km/h
08.12.2023 07:55 -0,3 C 0,0 C 55 % 89 % 1010,6 hPa 0,0 mm 4,3 km/h NO 42 0 min 0,0 UV-I -1,9 C 0,0 C 8,3 km/h
08.12.2023 07:50 -0,3 C 0,0 C 55 % 89 % 1010,6 hPa 0,0 mm 3,3 km/h NO 43 0 min 0,0 UV-I -1,9 C 0,0 C 7,2 km/h
08.12.2023 07:45 -0,3 C 0,0 C 55 % 89 % 1010,6 hPa 0,0 mm 3,3 km/h O-NO 60 0 min 0,0 UV-I -1,9 C 0,0 C 7,6 km/h
08.12.2023 07:40 -0,3 C 0,0 C 55 % 89 % 1010,7 hPa 0,0 mm 3,9 km/h NO 44 0 min 0,0 UV-I -1,9 C 0,0 C 12,2 km/h
08.12.2023 07:35 -0,3 C 0,0 C 55 % 89 % 1010,8 hPa 0,0 mm 2,8 km/h NO 54 0 min 0,0 UV-I -1,9 C 0,0 C 5,8 km/h
08.12.2023 07:30 -0,3 C 0,0 C 55 % 90 % 1010,9 hPa 0,0 mm 2,8 km/h NO 35 0 min 0,0 UV-I -1,7 C 0,0 C 6,8 km/h
08.12.2023 07:25 -0,4 C 0,0 C 55 % 90 % 1011,0 hPa 0,0 mm 2,4 km/h NO 54 0 min 0,0 UV-I -1,8 C 0,0 C 5,0 km/h
08.12.2023 07:20 -0,4 C 0,0 C 55 % 90 % 1011,0 hPa 0,0 mm 2,2 km/h NO 50 0 min 0,0 UV-I -1,8 C 0,0 C 5,4 km/h
08.12.2023 07:15 -0,4 C 0,0 C 55 % 90 % 1011,0 hPa 0,0 mm 3,0 km/h N-NO 30 0 min 0,0 UV-I -1,8 C 0,0 C 6,1 km/h
08.12.2023 07:10 -0,4 C 0,0 C 55 % 90 % 1011,0 hPa 0,0 mm 1,6 km/h NO 44 0 min 0,0 UV-I -1,8 C 0,0 C 4,0 km/h
08.12.2023 07:05 -0,3 C 0,0 C 55 % 90 % 1011,2 hPa 0,0 mm 2,6 km/h N 10 0 min 0,0 UV-I -1,7 C 0,0 C 8,3 km/h
08.12.2023 07:00 -0,3 C 0,0 C 55 % 90 % 1011,2 hPa 0,0 mm 2,4 km/h N-NO 30 0 min 0,0 UV-I -1,7 C 0,0 C 4,7 km/h
08.12.2023 06:55 -0,3 C 0,0 C 55 % 89 % 1011,2 hPa 0,0 mm 2,8 km/h NO 56 0 min 0,0 UV-I -1,9 C 0,0 C 12,6 km/h
08.12.2023 06:50 -0,4 C 0,0 C 55 % 89 % 1011,2 hPa 0,0 mm 2,8 km/h NO 42 0 min 0,0 UV-I -2,0 C 0,0 C 6,1 km/h
08.12.2023 06:45 -0,4 C 0,0 C 55 % 89 % 1011,0 hPa 0,0 mm 3,0 km/h NO 43 0 min 0,0 UV-I -2,0 C 0,0 C 5,8 km/h
08.12.2023 06:40 -0,4 C 0,0 C 55 % 90 % 1011,1 hPa 0,0 mm 2,8 km/h O-SO 107 0 min 0,0 UV-I -1,8 C 0,0 C 6,1 km/h
08.12.2023 06:35 -0,4 C 0,0 C 56 % 89 % 1011,2 hPa 0,0 mm 2,3 km/h O 100 0 min 0,0 UV-I -2,0 C 0,0 C 5,4 km/h
08.12.2023 06:30 -0,4 C 0,0 C 56 % 89 % 1011,0 hPa 0,0 mm 1,4 km/h NO 56 0 min 0,0 UV-I -2,0 C 0,0 C 3,2 km/h
08.12.2023 06:25 -0,5 C 0,0 C 56 % 89 % 1011,0 hPa 0,0 mm 2,4 km/h NO 43 0 min 0,0 UV-I -2,1 C 0,0 C 5,4 km/h
08.12.2023 06:20 -0,6 C 0,0 C 56 % 90 % 1010,9 hPa 0,0 mm 2,2 km/h O-NO 65 0 min 0,0 UV-I -2,0 C 0,0 C 7,6 km/h
08.12.2023 06:15 -0,8 C 0,0 C 55 % 91 % 1011,1 hPa 0,0 mm 2,3 km/h O-NO 70 0 min 0,0 UV-I -2,1 C 0,0 C 6,1 km/h
08.12.2023 06:10 -0,8 C 0,0 C 53 % 91 % 1011,2 hPa 0,0 mm 1,9 km/h NO 52 0 min 0,0 UV-I -2,1 C 0,0 C 4,0 km/h
08.12.2023 06:05 -0,8 C 0,0 C 52 % 91 % 1011,2 hPa 0,0 mm 1,8 km/h O-NO 62 0 min 0,0 UV-I -2,1 C 0,0 C 4,3 km/h
08.12.2023 06:00 -0,8 C 0,0 C 52 % 91 % 1011,3 hPa 0,0 mm 1,8 km/h O-NO 64 0 min 0,0 UV-I -2,1 C 0,0 C 4,3 km/h
08.12.2023 05:55 -0,8 C 0,0 C 52 % 91 % 1011,3 hPa 0,0 mm 1,5 km/h O-SO 107 0 min 0,0 UV-I -2,1 C 0,0 C 4,7 km/h
08.12.2023 05:50 -0,7 C 0,0 C 52 % 91 % 1011,4 hPa 0,0 mm 0,6 km/h W-NW 302 0 min 0,0 UV-I -2,0 C 0,0 C 3,6 km/h
08.12.2023 05:45 -0,7 C 0,0 C 52 % 90 % 1011,4 hPa 0,0 mm 1,1 km/h SO 127 0 min 0,0 UV-I -2,1 C 0,0 C 4,0 km/h
08.12.2023 05:40 -0,7 C 0,0 C 52 % 90 % 1011,3 hPa 0,0 mm 2,0 km/h O-SO 123 0 min 0,0 UV-I -2,1 C 0,0 C 6,1 km/h
08.12.2023 05:35 -0,6 C 0,0 C 52 % 90 % 1011,4 hPa 0,0 mm 1,6 km/h NO 44 0 min 0,0 UV-I -2,0 C 0,0 C 5,4 km/h
08.12.2023 05:30 -0,6 C 0,0 C 52 % 90 % 1011,5 hPa 0,0 mm 2,1 km/h O-NO 73 0 min 0,0 UV-I -2,0 C 0,0 C 6,1 km/h
08.12.2023 05:25 -0,6 C 0,0 C 52 % 90 % 1011,5 hPa 0,0 mm 2,8 km/h NO 37 0 min 0,0 UV-I -2,0 C 0,0 C 6,1 km/h
08.12.2023 05:20 -0,6 C 0,0 C 52 % 90 % 1011,5 hPa 0,0 mm 2,7 km/h NO 34 0 min 0,0 UV-I -2,0 C 0,0 C 7,2 km/h
08.12.2023 05:15 -0,6 C 0,0 C 52 % 90 % 1011,7 hPa 0,0 mm 2,0 km/h O-NO 62 0 min 0,0 UV-I -2,0 C 0,0 C 6,5 km/h
08.12.2023 05:10 -0,5 C 0,0 C 52 % 90 % 1011,8 hPa 0,0 mm 2,1 km/h O-NO 63 0 min 0,0 UV-I -1,9 C 0,0 C 9,0 km/h
08.12.2023 05:05 -0,4 C 0,0 C 52 % 90 % 1011,8 hPa 0,0 mm 2,0 km/h O 98 0 min 0,0 UV-I -1,8 C 0,0 C 5,8 km/h
08.12.2023 05:00 -0,4 C 0,0 C 52 % 89 % 1011,9 hPa 0,0 mm 3,3 km/h N-NO 30 0 min 0,0 UV-I -2,0 C 0,0 C 7,9 km/h
08.12.2023 04:55 -0,4 C 0,0 C 52 % 89 % 1011,9 hPa 0,0 mm 3,5 km/h O-NO 58 0 min 0,0 UV-I -2,0 C 0,0 C 9,7 km/h
08.12.2023 04:50 -0,5 C 0,0 C 52 % 89 % 1012,0 hPa 0,0 mm 2,9 km/h N 359 0 min 0,0 UV-I -2,1 C 0,0 C 5,4 km/h
08.12.2023 04:45 -0,5 C 0,0 C 52 % 89 % 1012,1 hPa 0,0 mm 3,0 km/h NO 50 0 min 0,0 UV-I -2,1 C 0,0 C 7,2 km/h
08.12.2023 04:40 -0,5 C 0,0 C 52 % 88 % 1012,1 hPa 0,0 mm 3,5 km/h NO 36 0 min 0,0 UV-I -2,2 C 0,0 C 8,6 km/h
08.12.2023 04:35 -0,5 C 0,0 C 52 % 88 % 1012,3 hPa 0,0 mm 3,1 km/h O-NO 73 0 min 0,0 UV-I -2,2 C 0,0 C 5,0 km/h
08.12.2023 04:30 -0,5 C 0,0 C 52 % 88 % 1012,3 hPa 0,0 mm 2,1 km/h NO 43 0 min 0,0 UV-I -2,2 C 0,0 C 6,5 km/h
08.12.2023 04:25 -0,5 C 0,0 C 52 % 88 % 1012,2 hPa 0,0 mm 2,6 km/h NO 47 0 min 0,0 UV-I -2,2 C 0,0 C 5,8 km/h
08.12.2023 04:20 -0,5 C 0,0 C 52 % 87 % 1012,1 hPa 0,0 mm 3,3 km/h O-NO 58 0 min 0,0 UV-I -2,4 C 0,0 C 9,4 km/h
08.12.2023 04:15 -0,5 C 0,0 C 52 % 87 % 1012,2 hPa 0,0 mm 3,2 km/h O-NO 64 0 min 0,0 UV-I -2,4 C 0,0 C 5,8 km/h
08.12.2023 04:10 -0,5 C 0,0 C 52 % 87 % 1012,1 hPa 0,0 mm 3,5 km/h NO 45 0 min 0,0 UV-I -2,4 C 0,0 C 7,6 km/h
08.12.2023 04:05 -0,5 C 0,0 C 52 % 87 % 1012,0 hPa 0,0 mm 3,7 km/h NO 51 0 min 0,0 UV-I -2,4 C 0,0 C 7,6 km/h
08.12.2023 04:00 -0,6 C 0,0 C 53 % 87 % 1012,0 hPa 0,0 mm 4,1 km/h NO 40 0 min 0,0 UV-I -2,5 C 0,0 C 7,6 km/h
08.12.2023 03:55 -0,6 C 0,0 C 53 % 88 % 1012,1 hPa 0,0 mm 3,9 km/h NO 45 0 min 0,0 UV-I -2,3 C 0,0 C 9,4 km/h
08.12.2023 03:50 -0,6 C 0,0 C 53 % 87 % 1012,1 hPa 0,0 mm 3,5 km/h NO 45 0 min 0,0 UV-I -2,5 C 0,0 C 7,6 km/h
08.12.2023 03:45 -0,6 C 0,0 C 53 % 87 % 1012,3 hPa 0,0 mm 3,9 km/h NO 36 0 min 0,0 UV-I -2,5 C 0,0 C 9,4 km/h
08.12.2023 03:40 -0,6 C 0,0 C 52 % 87 % 1012,4 hPa 0,0 mm 3,9 km/h NO 39 0 min 0,0 UV-I -2,5 C 0,0 C 7,6 km/h
08.12.2023 03:35 -0,7 C 0,0 C 52 % 88 % 1012,5 hPa 0,0 mm 2,8 km/h NO 38 0 min 0,0 UV-I -2,4 C 0,0 C 6,8 km/h
08.12.2023 03:30 -0,8 C 0,0 C 52 % 89 % 1012,7 hPa 0,0 mm 4,0 km/h O-NO 60 0 min 0,0 UV-I -2,4 C 0,0 C 7,2 km/h
08.12.2023 03:25 -0,8 C 0,0 C 52 % 89 % 1012,8 hPa 0,0 mm 2,5 km/h O-SO 102 0 min 0,0 UV-I -2,4 C 0,0 C 5,4 km/h
08.12.2023 03:20 -0,7 C 0,0 C 52 % 89 % 1012,9 hPa 0,0 mm 3,5 km/h NO 47 0 min 0,0 UV-I -2,3 C 0,0 C 7,6 km/h
08.12.2023 03:15 -0,7 C 0,0 C 52 % 89 % 1013,0 hPa 0,0 mm 2,8 km/h NO 54 0 min 0,0 UV-I -2,3 C 0,0 C 7,2 km/h
08.12.2023 03:10 -0,6 C 0,0 C 52 % 88 % 1013,1 hPa 0,0 mm 2,5 km/h N-NO 30 0 min 0,0 UV-I -2,3 C 0,0 C 6,1 km/h
08.12.2023 03:05 -0,7 C 0,0 C 52 % 89 % 1013,2 hPa 0,0 mm 3,0 km/h NO 46 0 min 0,0 UV-I -2,3 C 0,0 C 7,6 km/h
08.12.2023 03:00 -0,7 C 0,0 C 52 % 89 % 1013,1 hPa 0,0 mm 2,8 km/h NO 44 0 min 0,0 UV-I -2,3 C 0,0 C 5,4 km/h
08.12.2023 02:55 -0,7 C 0,0 C 52 % 89 % 1013,1 hPa 0,0 mm 3,1 km/h NO 36 0 min 0,0 UV-I -2,3 C 0,0 C 10,1 km/h
08.12.2023 02:50 -0,8 C 0,0 C 52 % 90 % 1013,1 hPa 0,0 mm 3,1 km/h O-NO 76 0 min 0,0 UV-I -2,2 C 0,0 C 7,9 km/h
08.12.2023 02:45 -0,9 C 0,0 C 52 % 90 % 1013,2 hPa 0,0 mm 2,6 km/h N-NO 15 0 min 0,0 UV-I -2,3 C 0,0 C 7,2 km/h
08.12.2023 02:40 -0,9 C 0,0 C 52 % 91 % 1013,3 hPa 0,0 mm 3,5 km/h NO 37 0 min 0,0 UV-I -2,2 C 0,0 C 8,3 km/h
08.12.2023 02:35 -1,0 C 0,0 C 52 % 91 % 1013,3 hPa 0,0 mm 2,4 km/h O-NO 66 0 min 0,0 UV-I -2,3 C 0,0 C 6,5 km/h
08.12.2023 02:30 -1,0 C 0,0 C 53 % 91 % 1013,4 hPa 0,0 mm 2,2 km/h O-NO 65 0 min 0,0 UV-I -2,3 C 0,0 C 6,8 km/h
08.12.2023 02:25 -1,0 C 0,0 C 53 % 91 % 1013,5 hPa 0,0 mm 1,8 km/h O 82 0 min 0,0 UV-I -2,3 C 0,0 C 5,4 km/h
08.12.2023 02:20 -1,0 C 0,0 C 53 % 91 % 1013,5 hPa 0,0 mm 2,7 km/h O 82 0 min 0,0 UV-I -2,3 C 0,0 C 7,6 km/h
08.12.2023 02:15 -1,1 C 0,0 C 53 % 92 % 1013,5 hPa 0,0 mm 1,7 km/h O 84 0 min 0,0 UV-I -2,2 C 0,0 C 5,0 km/h
08.12.2023 02:10 -1,1 C 0,0 C 52 % 92 % 1013,6 hPa 0,0 mm 1,5 km/h NO 56 0 min 0,0 UV-I -2,2 C 0,0 C 5,4 km/h
08.12.2023 02:05 -1,2 C 0,0 C 52 % 93 % 1013,6 hPa 0,0 mm 2,5 km/h O-NO 64 0 min 0,0 UV-I -2,2 C 0,0 C 8,6 km/h
08.12.2023 02:00 -1,2 C 0,0 C 52 % 93 % 1013,6 hPa 0,0 mm 1,8 km/h NO 56 0 min 0,0 UV-I -2,2 C 0,0 C 6,5 km/h
08.12.2023 01:55 -1,2 C 0,0 C 52 % 93 % 1013,6 hPa 0,0 mm 2,1 km/h O-NO 60 0 min 0,0 UV-I -2,2 C 0,0 C 7,2 km/h
08.12.2023 01:50 -1,3 C 0,0 C 52 % 93 % 1013,8 hPa 0,0 mm 1,2 km/h O-NO 59 0 min 0,0 UV-I -2,3 C 0,0 C 3,6 km/h
08.12.2023 01:45 -1,3 C 0,0 C 52 % 94 % 1014,0 hPa 0,0 mm 1,3 km/h O-NO 74 0 min 0,0 UV-I -2,1 C 0,0 C 3,6 km/h
08.12.2023 01:40 -1,3 C 0,0 C 52 % 94 % 1014,0 hPa 0,0 mm 1,4 km/h O-SO 122 0 min 0,0 UV-I -2,1 C 0,0 C 4,3 km/h
08.12.2023 01:35 -1,4 C 0,0 C 52 % 94 % 1014,1 hPa 0,0 mm 2,1 km/h NO 35 0 min 0,0 UV-I -2,2 C 0,0 C 4,3 km/h
08.12.2023 01:30 -1,4 C 0,0 C 52 % 94 % 1014,2 hPa 0,0 mm 1,7 km/h O 82 0 min 0,0 UV-I -2,2 C 0,0 C 4,0 km/h
08.12.2023 01:25 -1,4 C 0,0 C 52 % 94 % 1014,2 hPa 0,0 mm 1,5 km/h O-NO 66 0 min 0,0 UV-I -2,2 C 0,0 C 4,3 km/h
08.12.2023 01:20 -1,4 C 0,0 C 52 % 94 % 1014,3 hPa 0,0 mm 1,3 km/h O 85 0 min 0,0 UV-I -2,2 C 0,0 C 3,6 km/h
08.12.2023 01:15 -1,2 C 0,0 C 52 % 94 % 1014,4 hPa 0,0 mm 2,0 km/h O-NO 57 0 min 0,0 UV-I -2,0 C 0,0 C 4,3 km/h
08.12.2023 01:10 -1,1 C 0,0 C 52 % 93 % 1014,5 hPa 0,0 mm 1,0 km/h O-SO 105 0 min 0,0 UV-I -2,1 C 0,0 C 4,3 km/h
08.12.2023 01:05 -1,0 C 0,0 C 53 % 93 % 1014,5 hPa 0,0 mm 1,0 km/h O 86 0 min 0,0 UV-I -2,0 C 0,0 C 3,6 km/h
08.12.2023 01:00 -0,9 C 0,0 C 53 % 93 % 1014,4 hPa 0,0 mm 1,4 km/h O-NO 60 0 min 0,0 UV-I -1,9 C 0,0 C 3,6 km/h
08.12.2023 00:55 -1,0 C 0,0 C 53 % 94 % 1014,4 hPa 0,0 mm 1,8 km/h O-NO 64 0 min 0,0 UV-I -1,8 C 0,0 C 6,1 km/h
08.12.2023 00:50 -1,2 C 0,0 C 53 % 95 % 1014,5 hPa 0,0 mm 2,4 km/h O 80 0 min 0,0 UV-I -1,9 C 0,0 C 6,5 km/h
08.12.2023 00:45 -1,2 C 0,0 C 53 % 97 % 1014,6 hPa 0,0 mm 2,8 km/h O-NO 62 0 min 0,0 UV-I -1,6 C 0,0 C 9,0 km/h
08.12.2023 00:40 -1,4 C 0,0 C 52 % 98 % 1014,5 hPa 0,0 mm 2,1 km/h O-NO 69 0 min 0,0 UV-I -1,7 C 0,0 C 5,0 km/h
08.12.2023 00:35 -1,6 C 0,0 C 52 % 98 % 1014,7 hPa 0,0 mm 2,9 km/h O-NO 68 0 min 0,0 UV-I -1,9 C 0,0 C 4,7 km/h
08.12.2023 00:30 -1,9 C 0,0 C 52 % 98 % 1014,7 hPa 0,0 mm 2,3 km/h NO 50 0 min 0,0 UV-I -2,2 C 0,0 C 5,0 km/h
08.12.2023 00:25 -2,3 C 0,0 C 52 % 97 % 1014,7 hPa 0,0 mm 1,9 km/h O-NO 66 0 min 0,0 UV-I -2,7 C 0,0 C 5,4 km/h
08.12.2023 00:20 -2,7 C 0,0 C 52 % 96 % 1015,0 hPa 0,0 mm 1,3 km/h O 95 0 min 0,0 UV-I -3,2 C 0,0 C 4,3 km/h
08.12.2023 00:15 -2,8 C 0,0 C 52 % 96 % 1015,0 hPa 0,0 mm 0,6 km/h O-SO 109 0 min 0,0 UV-I -3,3 C 0,0 C 5,8 km/h
08.12.2023 00:10 -2,8 C 0,0 C 52 % 96 % 1015,3 hPa 0,0 mm 0,7 km/h SO 138 0 min 0,0 UV-I -3,3 C 0,0 C 2,9 km/h
08.12.2023 00:05 -2,7 C 0,0 C 52 % 96 % 1015,3 hPa 0,0 mm 0,1 km/h S-SO 150 0 min 0,0 UV-I -3,2 C 0,0 C 1,8 km/h
08.12.2023 00:00 -2,8 C 0,0 C 52 % 96 % 1015,4 hPa 0,0 mm 0,4 km/h SO 124 0 min 0,0 UV-I -3,3 C 0,0 C 1,8 km/h
07.12.2023 23:55 -3,0 C 0,0 C 53 % 95 % 1015,4 hPa 0,0 mm 0,4 km/h S 186 0 min 0,0 UV-I -3,7 C 0,0 C 2,5 km/h
07.12.2023 23:50 -2,9 C 0,0 C 53 % 95 % 1015,3 hPa 0,0 mm 0,5 km/h O-SO 118 0 min 0,0 UV-I -3,6 C 0,0 C 2,2 km/h
07.12.2023 23:45 -2,9 C 0,0 C 53 % 95 % 1015,4 hPa 0,0 mm 0,3 km/h O-SO 117 0 min 0,0 UV-I -3,6 C 0,0 C 2,5 km/h
07.12.2023 23:40 -2,8 C 0,0 C 53 % 95 % 1015,6 hPa 0,0 mm 0,1 km/h SO 145 0 min 0,0 UV-I -3,5 C 0,0 C 1,8 km/h
07.12.2023 23:35 -2,8 C 0,0 C 53 % 95 % 1015,6 hPa 0,0 mm 0,1 km/h S-SO 152 0 min 0,0 UV-I -3,5 C 0,0 C 2,5 km/h
07.12.2023 23:30 -2,7 C 0,0 C 53 % 95 % 1015,7 hPa 0,0 mm 0,0 km/h O-SO 107 0 min 0,0 UV-I -3,4 C 0,0 C 2,2 km/h
07.12.2023 23:25 -2,7 C 0,0 C 53 % 95 % 1015,7 hPa 0,0 mm 0,3 km/h SO 132 0 min 0,0 UV-I -3,4 C 0,0 C 2,2 km/h
07.12.2023 23:20 -2,6 C 0,0 C 53 % 95 % 1015,8 hPa 0,0 mm 0,4 km/h SO 133 0 min 0,0 UV-I -3,3 C 0,0 C 2,5 km/h
07.12.2023 23:15 -2,5 C 0,0 C 53 % 94 % 1016,0 hPa 0,0 mm 0,0 km/h O-NO 63 0 min 0,0 UV-I -3,3 C 0,0 C 0,0 km/h
07.12.2023 23:10 -2,4 C 0,0 C 53 % 94 % 1016,0 hPa 0,0 mm 0,0 km/h O-NO 70 0 min 0,0 UV-I -3,2 C 0,0 C 1,8 km/h
07.12.2023 23:05 -2,3 C 0,0 C 52 % 93 % 1016,2 hPa 0,0 mm 0,0 km/h O-SO 109 0 min 0,0 UV-I -3,3 C 0,0 C 1,8 km/h
07.12.2023 23:00 -2,1 C 0,0 C 52 % 94 % 1016,1 hPa 0,0 mm 0,0 km/h SO 125 0 min 0,0 UV-I -2,9 C 0,0 C 1,8 km/h
07.12.2023 22:55 -1,9 C 0,0 C 52 % 94 % 1016,2 hPa 0,0 mm 0,1 km/h S-SO 154 0 min 0,0 UV-I -2,7 C 0,0 C 2,2 km/h
07.12.2023 22:50 -1,7 C 0,0 C 53 % 94 % 1016,2 hPa 0,0 mm 0,2 km/h SO 137 0 min 0,0 UV-I -2,5 C 0,0 C 2,5 km/h
07.12.2023 22:45 -1,6 C 0,0 C 53 % 94 % 1016,4 hPa 0,0 mm 0,7 km/h O 87 0 min 0,0 UV-I -2,4 C 0,0 C 3,2 km/h
07.12.2023 22:40 -1,5 C 0,0 C 53 % 93 % 1016,5 hPa 0,0 mm 0,6 km/h O-NO 71 0 min 0,0 UV-I -2,5 C 0,0 C 2,9 km/h
07.12.2023 22:35 -1,4 C 0,0 C 53 % 93 % 1016,6 hPa 0,0 mm 0,8 km/h O 98 0 min 0,0 UV-I -2,4 C 0,0 C 3,6 km/h
07.12.2023 22:30 -1,4 C 0,0 C 53 % 93 % 1016,7 hPa 0,0 mm 0,9 km/h O 86 0 min 0,0 UV-I -2,4 C 0,0 C 4,3 km/h
07.12.2023 22:25 -1,4 C 0,0 C 53 % 94 % 1016,7 hPa 0,0 mm 0,9 km/h O-NO 63 0 min 0,0 UV-I -2,2 C 0,0 C 3,2 km/h
07.12.2023 22:20 -1,5 C 0,0 C 54 % 94 % 1016,7 hPa 0,0 mm 1,3 km/h O 80 0 min 0,0 UV-I -2,3 C 0,0 C 4,0 km/h
07.12.2023 22:15 -1,5 C 0,0 C 54 % 94 % 1016,7 hPa 0,0 mm 1,0 km/h O-SO 103 0 min 0,0 UV-I -2,3 C 0,0 C 2,5 km/h
07.12.2023 22:10 -1,4 C 0,0 C 54 % 93 % 1016,9 hPa 0,0 mm 0,5 km/h O-SO 107 0 min 0,0 UV-I -2,4 C 0,0 C 2,9 km/h
07.12.2023 22:05 -1,4 C 0,0 C 53 % 93 % 1016,9 hPa 0,0 mm 0,3 km/h O 92 0 min 0,0 UV-I -2,4 C 0,0 C 2,2 km/h
07.12.2023 22:00 -1,4 C 0,0 C 53 % 93 % 1016,9 hPa 0,0 mm 0,4 km/h O 90 0 min 0,0 UV-I -2,4 C 0,0 C 2,5 km/h
_ Min-Zeit 23:55 16:15 16:20 10:30 14:30 - 23:30 - - - 18:00 23:55 16:15 23:15
Minimum _ -3,0 C 0,0 C 52 % 85 % 1009,2 hPa - 0,0 km/h - - - 0,0 UV-I -3,7 C 0,0 C 0,0 km/h
_ Max-Zeit 13:05 14:00 18:00 18:00 22:10 14:45 07:55 - - 18:00 18:00 18:00 14:00 06:55
Maximum _ 0,5 C 0,3 C 57 % 98 % 1016,9 hPa 0,1 mm 4,3 km/h
NO
- - 0 min 0,0 UV-I -0,1 C 0,3 C 12,6 km/h
NO
Durchschnitt _ -0,5 C 0,1 C 53 % 92 % 1012,0 hPa #0,1 mm 1,8 km/h O-NO - #0 min. 0,0 UV-I -1,7 C 0,1 C 5,1 km/h
L.Zimmermann Spplingen lars0103@gmail.com